Regional Weather Roundup
Issued by NWS

Home | Current Version | Previous Version | Graphics & Text | Print | Product List | Glossary Off
Versions: 1 2 3 4 5 6 7 8 9 10 11 12 13 14 15 16 17 18 19 20 21 22 23 24 25 26 27 28 29 30 31 32 33 34 35 36 37 38 39 40 41 42 43 44 45 46 47 48 49 50

000
ASUS43 KDMX 241707
RWRIA

WEATHER ROUNDUP FOR IOWA
NATIONAL WEATHER SERVICE DES MOINES IA
1200 PM CDT THU JUL 24 2014

NOTE: "FAIR" INDICATES FEW OR NO CLOUDS BELOW 12,000 FEET WITH NO
SIGNIFICANT WEATHER AND/OR OBSTRUCTIONS TO VISIBILITY.

* - THESE STATIONS ARE NOT NWS STATIONS...THUS NOT UNDER NWS
QUALITY CONTROL.  THEY ALSO DO NOT REPORT WEATHER SUCH
AS PRECIPITATION OR FOG.

IAZ001>003-012>014-020>022-031>034-043>046-241800-
   NORTHWEST IOWA

CITY           SKY/WX    TMP DP  RH WIND       PRES   REMARKS
CARROLL *      SUNNY     72  63  73 SE15G23   30.03F
CHEROKEE *     PTSUNNY   73  61  64 S8        30.11R
DENISON *      SUNNY     72  63  73 S15G23    30.01F
LE MARS *      SUNNY     72  61  68 S10G21    30.09R
ORANGE CITY *  RAIN      68  61  77 SE7       30.10F
SHELDON *      SUNNY     70  61  73 VRB6G17   30.11R
SIOUX CITY     MOSUNNY   75  64  68 S14       30.06R
SPENCER        MOSUNNY   76  59  55 S13       30.10R
STORM LAKE *   SUNNY     73  63  68 S14       30.10R
$$

IAZ055>058-069>071-079>083-090>094-241800-
   SOUTHWEST IOWA

CITY           SKY/WX    TMP DP  RH WIND       PRES   REMARKS
ATLANTIC *     LGT RAIN  70  63  78 SE12G17   30.07F
AUDUBON *      SUNNY     73  66  78 SE12G18   30.07F
CLARINDA *     MOSUNNY   75  61  60 VRB6      30.19S
COUNCIL BLFS * SUNNY     73  64  73 SE14      30.11F
CRESTON *      MOSUNNY   73  59  60 S7        30.19F
HARLAN  *      CLOUDY    70  64  83 S9        30.13F
LAMONI         PTSUNNY   75  57  53 S6        30.19R
RED OAK *      SUNNY     73  61  64 SE13      30.14F
SHENANDOAH *   SUNNY     77  61  57 SE10      30.16F
$$

IAZ047>049-059>061-072>074-084-241800-
   CENTRAL IOWA

CITY           SKY/WX    TMP DP  RH WIND       PRES   REMARKS
AMES           CLOUDY    76  60  57 S9        30.15F
ANKENY *       MOSUNNY   77  59  53 S8        30.16F
CHARITON *     MOSUNNY   75  59  57 S6        30.19R
DES MOINES     CLOUDY    77  57  50 SE8       30.17F
GRINNELL*      PTSUNNY   75  57  53 CALM      30.18F
KNOXVILLE *    SUNNY     75  59  57 SW6       30.16F
MARSHALLTOWN   PTSUNNY   76  60  57 SW5       30.16F
PELLA *        PTSUNNY   79  59  50 CALM      30.18F HAZE    HX  80
PERRY *          N/A     73  64  73 SE9       30.13F
$$

IAZ004>006-015-016-023>025-035-036-241800-
   NORTH CENTRAL IOWA

CITY           SKY/WX    TMP DP  RH WIND       PRES   REMARKS
ALGONA *       SUNNY     77  61  57 S12G17    30.10F
CLARION *      SUNNY     77  59  53 S14       30.11F
ESTHERVILLE    MOSUNNY   74  59  59 S14       30.11S
FORT DODGE *   PTSUNNY   77  61  57 S14G20    30.11F
MASON CITY     MOSUNNY   77  59  53 S8        30.15F
FOREST CITY *  PTSUNNY   77  59  53 S8G17     30.13F
IOWA FALLS *     N/A     77  59  53 S9        30.15F
$$

IAZ007>011-017>019-026>030-037>042-050>054-066-241800-
   NORTHEAST IOWA

CITY           SKY/WX    TMP DP  RH WIND       PRES   REMARKS
CEDAR RAPIDS   MOSUNNY   73  57  57 S7        30.17F
CHARLES CITY * MOSUNNY   77  57  50 S8        30.16F
CLINTON *      SUNNY     73  54  49 SE6       30.19F
DECORAH *      MOSUNNY   73  57  56 S5        30.16F
DUBUQUE        SUNNY     71  56  58 S6        30.18F
MONTICELLO *   SUNNY     73  57  56 VRB6      30.18S
OELWEIN *      SUNNY     75  61  60 S8        30.17F
WATERLOO       MOSUNNY   78  57  48 SE6       30.14F
$$

IAZ064-065-067-068-078-241800-
   EAST CENTRAL IOWA

CITY           SKY/WX    TMP DP  RH WIND       PRES   REMARKS
DAVENPORT      SUNNY     75  55  49 SE8       30.18F
IOWA CITY      MOSUNNY   74  58  57 SE7       30.19S
MT. PLEASANT * MOSUNNY   75  54  46 E5        30.18F
MUSCATINE *    SUNNY     75  55  50 VRB5      30.17F
QUAD CITIES    SUNNY     75  53  46 SE8       30.17F
$$

IAZ062-063-075>077-085>089-095>099-241800-
   SOUTHEAST IOWA

CITY           SKY/WX    TMP DP  RH WIND       PRES   REMARKS
BURLINGTON     SUNNY     75  52  44 S6        30.18S
FAIRFIELD *    SUNNY     73  59  60 SE7       30.18S
FORT MADISON * SUNNY     75  55  50 SE7       30.19S
KEOKUK *       SUNNY     73  57  56 SE7       30.18S
OSKALOOSA *      N/A     75  63  64 CALM      30.18S
CENTERVILLE *  SUNNY     75  59  57 E3        30.19S
OTTUMWA        PTSUNNY   75  62  64 VRB3      30.17S
WASHINGTON *   SUNNY     75  57  53 S7        30.18F
$$

ABBREVIATIONS USED IN REMARKS
   TC - TEMPERATURES IN CELSIUS
  WCI - WIND CHILL INDEX
   HX - HEAT INDEX
  VSB - VISIBILITY
$$




USA.gov is the U.S. government's official web portal to all federal, state and local government web resources and services.